Content
SEND FEEDBACK

Daily
Averages
Monthly
Summary
Mozambique

PEMBA, MOZAMBIQUE


Home > Africa > Mozambique
Elevation: 46 feet     Latitude: 12 58S     Longitude: 040 31E

WEATHER
 
SELECT A DAY
Number of Records: 20,091;   Date Range: 9/6/96 - 7/25/14
 
SHARE

PRINT THIS DATA

[ ← Previous Day ]
WEATHER ALMANAC - JANUARY 23, 2013
[ Next Day → ]
[ °C ]   °F
Weather ElementAverageHighLow
Temperature84 °F93.2 °F (1:00 pm)77 °F (9:00 pm)
Dewpoint76.5 °F78.8 °F (4:00 pm)73.4 °F (1:00 pm)
Humidity78.3 %100 % (9:00 pm)52 % (11:00 am)
Barometer29.87 in29.93 in (8:00 am)29.80 in (3:00 pm)
Wind Speed9.9 mph19.6 mph (4:00 pm)
Weather ElementAverage
Visibility9.1 mi
Wind DirectionESE (98 °)

Weather ElementTotal
Precipitation---
Cooling Degree Days20.1 (Base 65)
Growing Degree Days35.1 (Base 50)
Averaged from 20 records on January 23, 2013
WEATHER CONDITIONS BREAKOUT
WIND DIRECTION BREAKOUT
WEATHER BY HOUR - JANUARY 23, 2013
[ °C ]   °F
Local TimeTemperatureDewpointHumidityBarometerVisibilityWind DirectionWind SpeedGust SpeedPrecipitationEventsConditions
2:00 AM80.6 °F75.2 °F84 %29.86 in6.2 miNorth (10°)10.4 mphMostly Cloudy
5:00 AM78.0 °F76.0 °F93 %29.87 in16.0 miNNE (20°)8.1 mphScattered Clouds
5:00 AM78.8 °F77.0 °F94 %29.86 in6.2 miNNE (20°)8.1 mphPartly Cloudy
6:00 AM78.8 °F75.2 °F89 %29.92 in6.2 miNorth (360°)8.1 mphPartly Cloudy
8:00 AM84.2 °F75.2 °F74 %29.92 in6.2 miNNE (20°)12.7 mphPartly Cloudy
8:00 AM83.0 °F76.0 °F74 %29.93 in19.0 miNNE (20°)12.7 mphScattered Clouds
10:00 AM87.8 °F75.2 °F66 %29.89 in6.2 miNNW (340°)11.5 mphPartly Cloudy
11:00 AM90.0 °F75.0 °F52 %29.88 in19.0 miNNW (340°)12.7 mphScattered Clouds
11:00 AM89.6 °F75.2 °F62 %29.86 in6.2 miNNW (340°)12.7 mphPartly Cloudy
1:00 PM93.2 °F73.4 °F52 %29.83 in6.2 miENE (60°)9.2 mphMostly Cloudy
2:00 PM91.4 °F77.0 °F63 %29.83 in6.2 miENE (60°)9.2 mphPartly Cloudy
2:00 PM91.0 °F77.0 °F56 %29.83 in19.0 miENE (60°)9.2 mphScattered Clouds
3:00 PM87.8 °F77.0 °F70 %29.80 in6.2 miNE (40°)13.8 mphPartly Cloudy
4:00 PM86.0 °F78.8 °F79 %29.80 in6.2 miNE (50°)19.6 mphPartly Cloudy
5:00 PM82.4 °F78.8 °F89 %29.83 in6.2 miNNE (30°)12.7 mphThunderstormThunderstorm
6:00 PM80.6 °F77.0 °F89 %29.86 in6.2 miENE (70°)3.5 mphMostly Cloudy
7:00 PM82.4 °F78.8 °F89 %29.89 in6.2 miVariable2.3 mphThunderstormThunderstorm
9:00 PM77.0 °F77.0 °F100 %29.92 in6.2 miNE (50°)8.1 mphThunderstormThunderstorm
10:00 PM78.8 °F77.0 °F94 %29.92 in6.2 miNNE (30°)6.9 mphThunderstormThunderstorm
11:00 PM79.0 °F78.0 °F97 %29.93 in16.0 miNE (40°)6.9 mphPartly Cloudy
Hourly data recorded from FQPB, located miles away from Pemba, Mozambique







STORIES FROM OUR PARTNERS